Home > Weather > Caracas > Past weeks

Flag for Venezuela Weather for the Past 2 Weeks in Caracas, Venezuela

Now
79 °F

Passing clouds.


Feels Like: 82 °F
Forecast: 68 / 76 °F
Wind: No wind

Location: Caracas / Maiquetia Aerop. Intl. Simon Bolivar

Current Time: May 3, 2016 at 8:48:22 PM

Latest Report: May 3, 2016 at 8:00 PM


Visibility: N/A

Pressure: 29.89 "Hg (27.05 "Hg at 875m altitude)

Humidity: 79%

Dew Point: 72 °F

Location of CaracasLocation

Historic Weather in Caracas — Graph

°F

Caracas Temperature Yesterday

Maximum temperature yesterday: 84 °F (at 11:00 AM)
Minimum temperature yesterday: 77 °F (at 12:00 AM)
Average temperature yesterday: 80 °F

High & Low Weather Summary for the Past Weeks

 TemperatureHumidityPressure
High93 °F (Apr 24, 1:30 PM)100% (Apr 25, 1:30 PM)29.98 "Hg (Apr 25, 1:30 PM)
Low37 °F (Apr 25, 1:30 PM)48% (Apr 19, 7:30 AM)29.74 "Hg (Apr 27, 5:30 PM)
Average81 °F79%29.87 "Hg
* Reported Apr 18 7:30 PM — May 3 8:00 PM, Caracas, Weather by CustomWeather, © 2016

Note: Actual official high and low records may vary slightly from our data, if they occured in-between our weather recording intervals... More about our weather records

Advertising

Caracas Weather History for the Previous 24 Hours

Scroll right to see more
 ConditionsComfort  
Time TempWeatherWind HumidityBarometerVisibility
8:00 PM
Tue, May 3
79 °FPassing clouds.No wind79%29.89 "HgN/A
7:00 PM81 °FPassing clouds.1 mph79%29.89 "HgN/A
6:00 PM82 °FScattered clouds.1 mph74%29.86 "HgN/A
5:00 PM81 °FPartly sunny.5 mph79%29.86 "HgN/A
4:00 PM81 °FPartly sunny.2 mph74%29.89 "HgN/A
3:00 PM84 °FPartly sunny.3 mph66%29.89 "HgN/A
2:00 PM84 °FPartly sunny.7 mph66%29.92 "HgN/A
1:00 PM86 °FScattered clouds.3 mph70%29.95 "HgN/A
12:00 PM84 °FScattered clouds.2 mph74%29.95 "HgN/A
11:00 AM84 °FPartly sunny.3 mph70%29.95 "HgN/A
10:00 AM84 °FPartly sunny.No wind74%29.95 "HgN/A
9:00 AM81 °FPartly sunny.No wind79%29.95 "HgN/A
8:00 AM79 °FPartly sunny.No wind79%29.95 "HgN/A
7:00 AM79 °FPartly sunny.No wind79%29.92 "HgN/A
6:00 AM77 °FScattered clouds.No wind79%29.92 "HgN/A
4:00 AM75 °FPassing clouds.No wind89%29.92 "HgN/A
3:00 AM75 °FPassing clouds.No wind89%29.95 "HgN/A
2:00 AM77 °FPassing clouds.No wind83%29.95 "HgN/A
1:00 AM77 °FPassing clouds.No wind89%29.98 "HgN/A
12:00 AM79 °FPassing clouds.No wind84%29.98 "HgN/A
11:00 PM
Mon, May 2
79 °FPassing clouds.No wind84%29.95 "HgN/A
10:00 PM79 °FPassing clouds.No wind84%29.95 "HgN/A
9:00 PM79 °FPassing clouds.No wind89%29.92 "HgN/A
8:00 PM79 °FPassing clouds.No wind89%29.92 "HgN/A
Weather by CustomWeather, © 2016

See weather overviewHow to use our weather pages